Location: Carrizalito
(10.3833°N, 67.0217°W)
Time: 03:09:55
(UTC+00:00)

Meteor 1-11 Rocket - Pass Details

Date: 12 July 2022
Orbit: 830 x 916 km, 81.2° (Epoch: 13 August)

Event Time Altitude Azimuth Distance (km) Brightness Sun altitude
Exits shadow 08:30:42 19° 306° (NW) 2,005 5.4 -23.5°
Drops below altitude 10° 08:33:10 10° 328° (NNW) 2,579 6.2 -23.0°
Sets 08:36:08 0° 343° (NNW) 3,507 7.1 -22.4°
